Location: Borea
(45.6167°N, 23.0167°E)
Time: 06:02:48
(UTC+00:00)

Cosmos 1633 - Pass Details

Date: 03 February 2023
Orbit: 423 x 432 km, 82.5° (Epoch: 29 March)

Event Time Altitude Azimuth Distance (km) Brightness Sun altitude
Rises 17:35:09 0° 205° (SSW) 2,371 6.4 -20.9°
Reaches altitude 10° 17:37:17 10° 215° (SW) 1,510 5.5 -21.3°
Maximum altitude 17:40:20 35° 283° (WNW) 701 3.9 -21.8°
Enters shadow 17:43:21 11° 351° (N) 1,495 5.1 -22.4°
